This is the latest recevied weather packets stored in our database for station/object KQ4LLM. If no packets are shown the sender has not sent any weather packets the latest 10 day(s).
| Time | Temp. | Humidity | Pressure | Rain* | Wind** | Luminosity | Snow |
|---|---|---|---|---|---|---|---|
| 1788125465 | 29.44° C | 64% | - | 0 mm | - | - | - |
| 1788125161 | 28.33° C | 68% | - | 0 mm | - | - | - |
| 1788124860 | 28.89° C | 69% | - | 0 mm | - | - | - |
| 1788124556 | 29.44° C | 65% | - | 0 mm | - | - | - |
| 1788124250 | 29.44° C | 63% | - | 0 mm | - | - | - |
| 1788123944 | 30° C | 62% | - | 0 mm | - | - | - |
| 1788123638 | 30.56° C | 61% | - | 0 mm | - | - | - |
| 1788123336 | 30.56° C | 61% | - | 0 mm | - | - | - |
| 1788123032 | 30° C | 61% | - | 0 mm | - | - | - |
| 1788122731 | 30° C | 59% | - | 0 mm | - | - | - |
| 1788122447 | 30° C | 60% | - | 0 mm | - | - | - |
| 1788122127 | 30° C | 61% | - | 0 mm | - | - | - |
| 1788121822 | 30° C | 64% | - | 0 mm | - | - | - |
| 1788121521 | 30° C | 63% | - | 0 mm | - | - | - |
| 1788121218 | 31.11° C | 59% | - | 0 mm | - | - | - |
| 1788120916 | 30° C | 60% | - | 0 mm | - | - | - |
| 1788120612 | 30° C | 64% | - | 0 mm | - | - | - |
| 1788120307 | 29.44° C | 63% | - | 0 mm | - | - | - |
| 1788120006 | 30.56° C | 61% | - | 0 mm | - | - | - |
| 1788119702 | 31.11° C | 60% | - | 0 mm | - | - | - |
| 1788119399 | 31.11° C | 59% | - | 0 mm | - | - | - |
| 1788119099 | 30.56° C | 59% | - | 0 mm | - | - | - |
| 1788118793 | 30.56° C | 60% | - | 0 mm | - | - | - |
| 1788118492 | 30° C | 62% | - | 0 mm | - | - | - |
| 1788118188 | 30.56° C | 59% | - | 0 mm | - | - | - |
* Rain latest hour (hover to see other rain measurements)
** Current wind speed in m/s (hover to see current wind gust speed)